Time,TemperatureF,DewpointF,PressureIn,WindDirection,WindDirectionDegrees,WindSpeedMPH,WindSpeedGustMPH,Humidity,HourlyPrecipIn,Conditions,Clouds,dailyrainin,SoftwareType,DateUTC
2013-04-13 10:15:00,46.8,36.7,0.00,SW,216,0.0,4.0,68,0.00,,,0.04,Weather View 32 v70,2013-04-13 14:15:00,
2013-04-13 10:30:00,48.0,34.4,0.00,WNW,294,0.0,4.0,59,0.00,,,0.04,Weather View 32 v70,2013-04-13 14:30:00,
2013-04-13 10:45:00,50.5,31.0,0.00,NW,325,2.0,6.0,47,0.00,,,0.04,Weather View 32 v70,2013-04-13 14:45:00,
2013-04-13 11:00:00,52.0,29.0,0.00,NW,306,3.0,8.0,41,0.00,,,0.04,Weather View 32 v70,2013-04-13 15:00:00,
2013-04-13 11:15:00,52.0,26.5,0.00,WNW,287,3.0,9.0,37,0.00,,,0.04,Weather View 32 v70,2013-04-13 15:15:00,
2013-04-13 11:45:00,54.7,24.6,0.00,WNW,284,2.0,10.0,31,0.00,,,0.04,Weather View 32 v70,2013-04-13 15:45:00,
2013-04-13 12:00:00,56.3,24.4,0.00,NNE,12,5.0,10.0,29,0.00,,,0.04,Weather View 32 v70,2013-04-13 16:00:00,
2013-04-13 12:15:00,56.5,23.7,0.00,WSW,237,4.0,10.0,28,0.00,,,0.04,Weather View 32 v70,2013-04-13 16:15:00,
2013-04-13 12:24:00,56.5,23.7,0.00,WSW,237,4.0,10.0,28,0.00,,,0.04,Weather View 32 v70,2013-04-13 16:24:00,
2013-04-13 12:30:00,55.0,24.9,0.00,SW,231,5.0,10.0,31,0.00,,,0.04,Weather View 32 v70,2013-04-13 16:30:00,
2013-04-13 12:45:00,54.7,26.1,0.00,SW,225,8.0,10.0,33,0.00,,,0.04,Weather View 32 v70,2013-04-13 16:45:00,
2013-04-13 13:00:00,55.8,23.9,0.00,WSW,250,4.0,10.0,29,0.00,,,0.04,Weather View 32 v70,2013-04-13 17:00:00,
2013-04-13 13:24:00,57.0,24.2,0.00,WSW,238,8.0,10.0,28,0.00,,,0.04,Weather View 32 v70,2013-04-13 17:24:00,
2013-04-13 13:30:00,58.5,25.4,0.00,NNW,331,4.0,11.0,28,0.00,,,0.04,Weather View 32 v70,2013-04-13 17:30:00,
2013-04-13 13:45:00,58.6,24.7,0.00,NNW,337,8.0,11.0,27,0.00,,,0.04,Weather View 32 v70,2013-04-13 17:45:00,
2013-04-13 14:00:00,59.2,24.2,0.00,WNW,286,5.0,11.0,26,0.00,,,0.04,Weather View 32 v70,2013-04-13 18:00:00,
2013-04-13 14:15:00,59.9,24.9,0.00,WNW,289,4.0,11.0,26,0.00,,,0.04,Weather View 32 v70,2013-04-13 18:15:00,
2013-04-13 14:30:00,59.2,25.1,0.00,WNW,287,4.0,11.0,27,0.00,,,0.04,Weather View 32 v70,2013-04-13 18:30:00,
2013-04-13 14:45:00,59.7,23.8,0.00,WSW,250,4.0,11.0,25,0.00,,,0.04,Weather View 32 v70,2013-04-13 18:45:00,
2013-04-13 15:00:00,59.7,24.7,0.00,SSW,202,6.0,11.0,26,0.00,,,0.04,Weather View 32 v70,2013-04-13 19:00:00,
2013-04-13 15:15:00,59.2,23.3,0.00,SW,217,5.0,11.0,25,0.00,,,0.04,Weather View 32 v70,2013-04-13 19:15:00,
2013-04-13 15:30:00,58.8,23.9,0.00,NNW,343,6.0,11.0,26,0.00,,,0.04,Weather View 32 v70,2013-04-13 19:30:00,
2013-04-13 15:45:00,60.3,25.2,0.00,SW,218,4.0,12.0,26,0.00,,,0.04,Weather View 32 v70,2013-04-13 19:45:00,
2013-04-13 16:00:00,57.7,23.0,0.00,WSW,240,4.0,12.0,26,0.00,,,0.04,Weather View 32 v70,2013-04-13 20:00:00,
2013-04-13 16:14:00,57.6,23.8,0.00,WSW,256,6.0,12.0,27,0.00,,,0.04,Weather View 32 v70,2013-04-13 20:14:00,
2013-04-13 16:15:00,57.6,23.8,0.00,WSW,256,6.0,12.0,27,0.00,,,0.04,Weather View 32 v70,2013-04-13 20:15:00,
2013-04-13 16:30:00,57.7,23.0,0.00,West,260,6.0,12.0,26,0.00,,,0.04,Weather View 32 v70,2013-04-13 20:30:00,
2013-04-13 16:45:00,58.3,23.5,0.00,West,277,5.0,11.0,26,0.00,,,0.04,Weather View 32 v70,2013-04-13 20:45:00,
2013-04-13 17:00:00,57.0,23.3,0.00,WSW,242,5.0,11.0,27,0.00,,,0.04,Weather View 32 v70,2013-04-13 21:00:00,
2013-04-13 17:14:00,56.8,23.1,0.00,West,265,4.0,11.0,27,0.00,,,0.04,Weather View 32 v70,2013-04-13 21:14:00,
2013-04-13 17:15:00,56.8,23.1,0.00,West,265,4.0,11.0,27,0.00,,,0.04,Weather View 32 v70,2013-04-13 21:15:00,
2013-04-13 17:30:00,56.8,24.0,0.00,WNW,289,5.0,11.0,28,0.00,,,0.04,Weather View 32 v70,2013-04-13 21:30:00,
2013-04-13 17:45:00,58.8,23.9,0.00,WNW,290,4.0,11.0,26,0.00,,,0.04,Weather View 32 v70,2013-04-13 21:45:00,
2013-04-13 18:00:00,61.3,25.1,0.00,West,273,4.0,11.0,25,0.00,,,0.04,Weather View 32 v70,2013-04-13 22:00:00,
2013-04-13 18:15:00,59.7,23.8,0.00,NW,325,6.0,10.0,25,0.00,,,0.04,Weather View 32 v70,2013-04-13 22:15:00,
2013-04-13 18:30:00,58.3,23.5,0.00,WSW,254,6.0,15.0,26,0.00,,,0.04,Weather View 32 v70,2013-04-13 22:30:00,
2013-04-13 18:45:00,56.3,22.7,0.00,West,271,4.0,15.0,27,0.00,,,0.04,Weather View 32 v70,2013-04-13 22:45:00,
2013-04-13 19:00:00,55.6,22.1,0.00,WNW,284,3.0,15.0,27,0.00,,,0.04,Weather View 32 v70,2013-04-13 23:00:00,
2013-04-13 19:15:00,54.9,22.3,0.00,NW,326,4.0,15.0,28,0.00,,,0.04,Weather View 32 v70,2013-04-13 23:15:00,
2013-04-13 19:29:00,54.1,22.5,0.00,NW,309,4.0,11.0,29,0.00,,,0.04,Weather View 32 v70,2013-04-13 23:29:00,
2013-04-13 19:45:00,53.6,23.6,0.00,NW,320,4.0,11.0,31,0.00,,,0.04,Weather View 32 v70,2013-04-13 23:45:00,
2013-04-13 19:59:00,52.9,23.0,0.00,NW,313,3.0,11.0,31,0.00,,,0.04,Weather View 32 v70,2013-04-13 23:59:00,
2013-04-13 20:14:00,52.3,22.5,0.00,NW,325,5.0,10.0,31,0.00,,,0.04,Weather View 32 v70,2013-04-14 00:14:00,
2013-04-13 20:15:00,52.3,22.5,0.00,NW,325,5.0,10.0,31,0.00,,,0.04,Weather View 32 v70,2013-04-14 00:15:00,
2013-04-13 20:30:00,52.0,23.7,0.00,WNW,290,4.0,10.0,33,0.00,,,0.04,Weather View 32 v70,2013-04-14 00:30:00,
2013-04-13 20:45:00,51.4,23.2,0.00,NNW,329,0.0,8.0,33,0.00,,,0.04,Weather View 32 v70,2013-04-14 00:45:00,
2013-04-13 21:00:00,50.7,25.3,0.00,North,5,2.0,8.0,37,0.00,,,0.04,Weather View 32 v70,2013-04-14 01:00:00,
2013-04-13 21:15:00,50.2,24.9,0.00,North,357,3.0,5.0,37,0.00,,,0.04,Weather View 32 v70,2013-04-14 01:15:00,
2013-04-13 21:30:00,50.0,24.7,0.00,North,357,4.0,6.0,37,0.00,,,0.04,Weather View 32 v70,2013-04-14 01:30:00,
2013-04-13 21:45:00,50.2,25.5,0.00,NNW,342,0.0,6.0,38,0.00,,,0.04,Weather View 32 v70,2013-04-14 01:45:00,
2013-04-13 21:59:00,50.0,25.3,0.00,NNW,340,0.0,6.0,38,0.00,,,0.04,Weather View 32 v70,2013-04-14 01:59:00,
2013-04-13 22:14:00,50.0,25.3,0.00,NNW,340,0.0,6.0,38,0.00,,,0.04,Weather View 32 v70,2013-04-14 02:14:00,
2013-04-13 22:30:00,50.2,25.5,0.00,NNW,337,0.0,5.0,38,0.00,,,0.04,Weather View 32 v70,2013-04-14 02:30:00,
2013-04-13 22:45:00,50.2,26.1,0.00,NNW,337,0.0,0.0,39,0.00,,,0.04,Weather View 32 v70,2013-04-14 02:45:00,
2013-04-13 23:00:00,50.0,25.3,0.00,NNW,337,0.0,0.0,38,0.00,,,0.04,Weather View 32 v70,2013-04-14 03:00:00,
2013-04-13 23:15:00,49.6,26.3,0.00,NNW,337,0.0,0.0,40,0.00,,,0.04,Weather View 32 v70,2013-04-14 03:15:00,
2013-04-13 23:30:00,49.3,25.9,0.00,SSW,208,0.0,0.0,40,0.00,,,0.04,Weather View 32 v70,2013-04-14 03:30:00,
2013-04-13 23:45:00,49.5,24.9,0.00,South,184,0.0,0.0,38,0.00,,,0.04,Weather View 32 v70,2013-04-14 03:45:00,